It's Saturday,
January 22nd, 2022
User not logged in
[Run Race Header Image][Run Race logo]
  
Race webcasting is attempted by race directors and their support staff. Please remember that conditions under which they're working may make it difficult to post timely webcast updates... your interest and patience is appreciated!
Race Information
Race Name:Chicago Full Moon Run - 2017
Location:Norwood Park - Chicago
State:Illinois, United States
 button: button: Webcast Autoplay
Event Information
Name of Event:Chicago Full Moon 5-Km
Distance:5 Kilometers
Started Date/Time:Wednesday August 9th, 2017, 7:31:41.25 pm
button: Assign Numbers  
Checkpoint:Full Moon Finish
Distance:3.107 Miles
Gun Start Time:Wednesday August 9th, 2017 7:31:41.25 pm
Calculate Chip Start Time:< not set >
Y or N... Calculate splits based upon participant chip start time?
Allow Early Chip Start Time:< not set >
Y or N... Allow participants a chip start time prior to gun start?
Pos Race
Number
NameAgeSexTimePace 
114Jeremy Bekkouche17M16:05.05:10.6Wed Aug 9th, 2017 7:47:46 pm
21Jaime Marcos19M16:05.25:10.7Wed Aug 9th, 2017 7:47:46 pm
352Jonny Fernandez18M16:13.55:13.3Wed Aug 9th, 2017 7:47:54 pm
4195Mathew Olech14M16:45.95:23.7Wed Aug 9th, 2017 7:48:27 pm
520Lance Caldwell46M18:07.25:49.9Wed Aug 9th, 2017 7:49:48 pm
682Michael Martineau42M18:33.65:58.4Wed Aug 9th, 2017 7:50:14 pm
7129Brian Sweney59M19:17.56:12.6Wed Aug 9th, 2017 7:50:58 pm
873veronica laureano32F19:20.36:13.4Wed Aug 9th, 2017 7:51:01 pm
92Ellie Grammas12F19:31.26:17.0Wed Aug 9th, 2017 7:51:12 pm
1012Shea Bastian19M20:03.46:27.3Wed Aug 9th, 2017 7:51:44 pm
11100Dan O'Connell51M20:14.06:30.7Wed Aug 9th, 2017 7:51:55 pm
1228Michael Cramarosso56M20:22.26:33.4Wed Aug 9th, 2017 7:52:03 pm
1358Michael Gulan22M20:27.16:34.9Wed Aug 9th, 2017 7:52:08 pm
14213Thomas Estka53M21:09.56:48.6Wed Aug 9th, 2017 7:52:50 pm
1549Bret Fahnstrom50M21:10.76:49.0Wed Aug 9th, 2017 7:52:51 pm
1655Jeff Giffin48M21:26.96:54.2Wed Aug 9th, 2017 7:53:08 pm
1759John Hayden40M21:39.76:58.3Wed Aug 9th, 2017 7:53:20 pm
1897Daniela Munoz40F21:40.16:58.5Wed Aug 9th, 2017 7:53:21 pm
19230Rich Beddome60M21:42.26:59.1Wed Aug 9th, 2017 7:53:23 pm
20125Emily Serb43F22:04.37:06.2Wed Aug 9th, 2017 7:53:45 pm
21114joey ryan24M22:04.87:06.4Wed Aug 9th, 2017 7:53:46 pm
2267Tim King55M22:19.27:11.0Wed Aug 9th, 2017 7:54:00 pm
23231Jeff Pozen56M22:30.07:14.5
24202Michael J. Fleischhacker53M22:33.07:15.5Wed Aug 9th, 2017 7:54:14 pm
25126Brian Sheridan54M22:33.67:15.7Wed Aug 9th, 2017 7:54:14 pm
2681Carolyn Martineau40F22:48.47:20.4Wed Aug 9th, 2017 7:54:29 pm
27233James Neaylon40M22:56.27:22.9Wed Aug 9th, 2017 7:54:37 pm
2817Laura Burstein50F23:00.17:24.2Wed Aug 9th, 2017 7:54:41 pm
29110Lisa Randall43F23:16.87:29.6Wed Aug 9th, 2017 7:54:58 pm
308Paul Angarone63M23:19.97:30.6Wed Aug 9th, 2017 7:55:01 pm
31207Michael Roberts65M23:46.87:39.2Wed Aug 9th, 2017 7:55:28 pm
3263Andrew Iwaszko40M23:51.87:40.8Wed Aug 9th, 2017 7:55:33 pm
33236Doug Berg62M23:56.77:42.4Wed Aug 9th, 2017 7:55:37 pm
3451Ryan Feeney11M24:15.07:48.3Wed Aug 9th, 2017 7:55:56 pm
3515Brian Bishop47M24:18.17:49.3Wed Aug 9th, 2017 7:55:59 pm
36194Carson Wetzel52M24:21.77:50.5Wed Aug 9th, 2017 7:56:02 pm
37116Brianna Santucci10F24:29.37:52.9Wed Aug 9th, 2017 7:56:10 pm
3894Nancy Moran52F24:33.87:54.4Wed Aug 9th, 2017 7:56:15 pm
39140Anna Zannis30F24:49.97:59.5Wed Aug 9th, 2017 7:56:31 pm
40212Antonino Grimaldi11M25:30.08:12.4Wed Aug 9th, 2017 7:57:11 pm
41225Dan Cunningham57M25:30.08:12.4Wed Aug 9th, 2017 7:57:11 pm
4265Leticia Kaner44F25:31.68:13.0Wed Aug 9th, 2017 7:57:12 pm
4350Allison Feeney13F25:41.68:16.2Wed Aug 9th, 2017 7:57:22 pm
44123Susan Schultz46F25:46.38:17.7Wed Aug 9th, 2017 7:57:27 pm
45215Jessica Svaboda43F25:57.68:21.3Wed Aug 9th, 2017 7:57:38 pm
46229Arthur Lipovetsky32M26:01.28:22.5Wed Aug 9th, 2017 7:57:42 pm
47117Vincent Santucci43M26:14.18:26.6Wed Aug 9th, 2017 7:57:55 pm
48128MaryBeth Stehlik41F26:16.48:27.4Wed Aug 9th, 2017 7:57:57 pm
4926Amy Cooley49F26:24.28:29.9Wed Aug 9th, 2017 7:58:05 pm
5080Nicholas Markese35M26:27.08:30.8Wed Aug 9th, 2017 7:58:08 pm
5164Lisa Johnson42F26:29.78:31.6Wed Aug 9th, 2017 7:58:10 pm
524Juli Aistars58F26:31.68:32.2Wed Aug 9th, 2017 7:58:12 pm
5398Tony Nasca53M26:33.68:32.9Wed Aug 9th, 2017 7:58:14 pm
54121H Schmalz53F26:35.08:33.3Wed Aug 9th, 2017 7:58:16 pm
55122kate schnatterbeck48F26:50.78:38.4Wed Aug 9th, 2017 7:58:31 pm
5685Sean Maurer16M26:55.18:39.8Wed Aug 9th, 2017 7:58:36 pm
577Greg Andiorio33M26:58.88:41.0Wed Aug 9th, 2017 7:58:40 pm
5899Jennifer Nelson48F27:04.08:42.7Wed Aug 9th, 2017 7:58:45 pm
5984Grace Maurer14F27:04.18:42.7Wed Aug 9th, 2017 7:58:45 pm
60226Cathy Cunningham57F27:15.58:46.4Wed Aug 9th, 2017 7:58:56 pm
6153Ginnie Flynn44F27:20.48:48.0Wed Aug 9th, 2017 7:59:01 pm
62130Sean Swoboda32M27:24.18:49.2Wed Aug 9th, 2017 7:59:05 pm
635Pablo Alcantara46M27:35.38:52.8Wed Aug 9th, 2017 7:59:16 pm
64132Tim Taylor52M27:41.38:54.7Wed Aug 9th, 2017 7:59:22 pm
6556Agustin Gonzalez43M27:46.88:56.5Wed Aug 9th, 2017 7:59:28 pm
66232Danielle Cunningham30F27:50.08:57.5Wed Aug 9th, 2017 7:59:31 pm
6770Augie Ladewski10M27:53.58:58.6Wed Aug 9th, 2017 7:59:34 pm
6872Stacey Ladewski45F27:54.48:58.9Wed Aug 9th, 2017 7:59:35 pm
6992Otto Miller35M28:01.09:01.0Wed Aug 9th, 2017 7:59:42 pm
7068Caroline Kohler25F28:27.29:09.5Wed Aug 9th, 2017 8:00:08 pm
7169Tom Kohler59M28:36.19:12.3Wed Aug 9th, 2017 8:00:17 pm
7245Patti Downey50F28:36.39:12.4Wed Aug 9th, 2017 8:00:17 pm
73108Bret Popper50M28:36.69:12.5Wed Aug 9th, 2017 8:00:17 pm
7434Isabel Dennewitz10F28:37.69:12.8Wed Aug 9th, 2017 8:00:18 pm
75227Pat Ccunningham31M28:41.69:14.1Wed Aug 9th, 2017 8:00:22 pm
7675Linda Leyden53F28:54.29:18.2Wed Aug 9th, 2017 8:00:35 pm
77131Thomas Taylor52M29:13.39:24.3Wed Aug 9th, 2017 8:00:54 pm
78124Christopher Serb46M29:20.79:26.7Wed Aug 9th, 2017 8:01:01 pm
7918Stuart Burstein66M29:23.99:27.7Wed Aug 9th, 2017 8:01:05 pm
80223William Fitzgerald66M29:25.99:28.4Wed Aug 9th, 2017 8:01:07 pm
8193Susan Mokry58F29:33.09:30.6Wed Aug 9th, 2017 8:01:14 pm
8224Danielle Cinkues24F29:37.19:32.0Wed Aug 9th, 2017 8:01:18 pm
83111Rose Renko50F29:40.99:33.2Wed Aug 9th, 2017 8:01:22 pm
8496Monica Morrealel38F29:54.49:37.5Wed Aug 9th, 2017 8:01:35 pm
8523Juan Cifuentes37M30:06.89:41.5Wed Aug 9th, 2017 8:01:48 pm
8683Clare Maurer12F30:13.39:43.6Wed Aug 9th, 2017 8:01:54 pm
87137Ariadne Weisenburger39F30:16.69:44.7Wed Aug 9th, 2017 8:01:57 pm
88107Ella Polec14F30:33.79:50.2Wed Aug 9th, 2017 8:02:14 pm
89235Mary Byrne47F30:34.79:50.5Wed Aug 9th, 2017 8:02:15 pm
9013Kelly Bateman53F30:36.59:51.1Wed Aug 9th, 2017 8:02:17 pm
9179Linda Markese34F30:58.79:58.2Wed Aug 9th, 2017 8:02:39 pm
9233Emma Dennewitz13F31:41.610:12.0Wed Aug 9th, 2017 8:03:22 pm
93198Vytas Misiulis70M31:55.310:16.4Wed Aug 9th, 2017 8:03:36 pm
9471Henry Ladewski12M32:26.610:26.5Wed Aug 9th, 2017 8:04:07 pm
9516Jeremy Bleichman44M32:44.210:32.2Wed Aug 9th, 2017 8:04:25 pm
96136Brian Vivona54M32:44.710:32.4Wed Aug 9th, 2017 8:04:25 pm
97134Bethany Turk32F32:45.210:32.5Wed Aug 9th, 2017 8:04:26 pm
98135Henrik Turk32M32:46.610:33.0Wed Aug 9th, 2017 8:04:27 pm
999Andrew Bastian24M33:13.210:41.5Wed Aug 9th, 2017 8:04:54 pm
10021Gina Champion24F33:13.610:41.6Wed Aug 9th, 2017 8:04:54 pm
101220Elizabeth Conway35F33:21.310:44.1Wed Aug 9th, 2017 8:05:02 pm
10287Penny McCreight71F33:28.510:46.4Wed Aug 9th, 2017 8:05:09 pm
10322Frances Cifuentes43F34:36.711:08.4Wed Aug 9th, 2017 8:06:17 pm
10490Corinne McKeag45F34:37.511:08.7Wed Aug 9th, 2017 8:06:18 pm
105222Ryan Randall10M34:56.111:14.6Wed Aug 9th, 2017 8:06:37 pm
106109Dean Randall13M34:58.111:15.3Wed Aug 9th, 2017 8:06:39 pm
107197Sam Rogan9M35:03.911:17.2Wed Aug 9th, 2017 8:06:45 pm
108196Ben Rogan44M35:04.111:17.2Wed Aug 9th, 2017 8:06:45 pm
10974Virginia Leon48F35:21.811:22.9Wed Aug 9th, 2017 8:07:03 pm
110103lindsay paul24F35:23.011:23.3Wed Aug 9th, 2017 8:07:04 pm
111118GEORGE SARGEANT54M35:25.011:24.0Wed Aug 9th, 2017 8:07:06 pm
112228Mike Grabowski54M35:25.211:24.0Wed Aug 9th, 2017 8:07:06 pm
113119KAREN SARGEANT54F35:25.311:24.0Wed Aug 9th, 2017 8:07:06 pm
11427Curtis Cornwell38M35:42.311:29.5Wed Aug 9th, 2017 8:07:23 pm
115113Jeff Richards1191M35:42.611:29.6Wed Aug 9th, 2017 8:07:23 pm
116112Miguel Reyes48M36:26.411:43.7Wed Aug 9th, 2017 8:08:07 pm
11732Brianna Del Boccio13F36:41.311:48.5Wed Aug 9th, 2017 8:08:22 pm
11846Julie Dufner39F36:42.411:48.8Wed Aug 9th, 2017 8:08:23 pm
11943Laura Downey16F37:26.812:03.2Wed Aug 9th, 2017 8:09:08 pm
12044Marie Downey18F37:27.112:03.2Wed Aug 9th, 2017 8:09:08 pm
121224Mary Kay Plomin57F37:29.012:03.9Wed Aug 9th, 2017 8:09:10 pm
12260Jack Heneghan16M37:30.612:04.4Wed Aug 9th, 2017 8:09:11 pm
123102Patty Ozog50F37:51.012:10.9Wed Aug 9th, 2017 8:09:32 pm
124201Phillip Ferenzi52M37:52.012:11.3Lost chip on course
12511Jim Bastian49M37:52.412:11.4Wed Aug 9th, 2017 8:09:33 pm
12640Milena Djurakov45F37:57.612:13.0Wed Aug 9th, 2017 8:09:38 pm
127133Stephen Thornton60M38:00.212:13.9Wed Aug 9th, 2017 8:09:41 pm
12878Heather Lundergan48F38:33.512:24.6Wed Aug 9th, 2017 8:10:14 pm
1296Deborah Altman56F39:47.512:48.4Wed Aug 9th, 2017 8:11:28 pm
13047Gladys Dunkel41F41:27.913:20.7Wed Aug 9th, 2017 8:13:09 pm
13188Katrina McDermott45F41:30.313:21.5Wed Aug 9th, 2017 8:13:11 pm
132115Lisa Ryan54F41:59.213:30.8Wed Aug 9th, 2017 8:13:40 pm
13348Mary Esposito54F42:05.213:32.8Wed Aug 9th, 2017 8:13:46 pm
13410Jill Bastian39F42:57.913:49.7Wed Aug 9th, 2017 8:14:39 pm
13542Kathleen Downey13F43:17.913:56.1Wed Aug 9th, 2017 8:14:59 pm
13630Karen D Davis62F43:24.713:58.3Wed Aug 9th, 2017 8:15:05 pm
13719Hank Caldwell82M44:21.014:16.5Wed Aug 9th, 2017 8:16:02 pm
13866Mary Kelley62F47:06.615:09.8Wed Aug 9th, 2017 8:18:47 pm
1393Patricia Ahern62F47:06.715:09.8Wed Aug 9th, 2017 8:18:47 pm
140104Barbara Pavlik68F51:47.516:40.2Wed Aug 9th, 2017 8:23:28 pm
141105Dan Pavlik72M51:58.016:43.5Wed Aug 9th, 2017 8:23:39 pm
142106Tamara Pincsak48F52:32.616:54.7Wed Aug 9th, 2017 8:24:13 pm
143234Mary Byrne14F52:33.616:55.0Wed Aug 9th, 2017 8:24:14 pm
14436Erica Dillon47F57:27.218:29.5Wed Aug 9th, 2017 8:29:08 pm
14537Erin Dillon16F57:46.118:35.6Wed Aug 9th, 2017 8:29:27 pm

Event Information
Name of Event:Chicago 1 Mile Lunar Orbit
Distance:1.08 Miles
Started Date/Time:Wednesday August 9th, 2017, 7:36:41.75 pm
button: Assign Numbers 
2004-2022 : All rights reserved
Terms and Conditions